Tracking 17996 objects as of 28-February-2017
HD Live streaming from Space Station
objects crossing your sky now

ERS 1

Track ERS 1 now!
10-day predictions
ERS 1 is classified as:


NORAD ID: 21574
Int'l Code: 1991-050A
Perigee: 750.9 km
Apogee: 796.5 km
Inclination: 98.4 °
Period: 100.2 minutes
Semi major axis: 7144 km
RCS: 11.0086 m2 (large)
Launch date: July 17, 1991
Source: European Space Agency (ESA)
Launch site: FRENCH GUIANA (FRGUI)
Your satellite tracking list
Your tracking list is empty





NASA's NSSDC Master Catalog

Two Line Element Set (TLE):
1 21574U 91050A   17057.94631104 +.00000070 +00000-0 +37821-4 0  9994
2 21574 098.4480 006.9279 0031914 285.1408 074.6250 14.37562637341762
Source of the keplerian elements: AFSPC